Location: Cicognara
(44.9500°N, 10.4667°E)
Time: 22:56:52
(UTC+00:00)

Meteor 1-27 - Pass Details

Date: 20 June 2021
Orbit: 838 x 892 km, 81.2° (Epoch: 23 July)

Event Time Altitude Azimuth Distance (km) Brightness Sun altitude
Rises 23:17:18 0° 350° (N) 3,403 8.8 -21.6°
Reaches altitude 10° 23:19:44 10° 352° (N) 2,464 7.8 -21.6°
Maximum altitude 23:25:18 77° 79° (ENE) 867 4.2 -21.6°
Enters shadow 23:27:13 43° 156° (SSE) 1,172 4.5 -21.6°
